• MPC Preparation (Info)

  • MPEC 2019-V80 : 2019 VW2

    The following Minor Planet Electronic Circular may be linked-to from your own Web pages, but must not otherwise be redistributed electronically.

    A form allowing access to any MPEC is at the bottom of this page.


    Read MPEC 2019-V79 Read MPEC 2019-V81


    M.P.E.C. 2019-V80                              Issued 2019 November 6, 21:27 UT
    
         The Minor Planet Electronic Circulars contain information on unusual
             minor planets and routine data on comets.  They are published
        on behalf of Division F of the International Astronomical Union by the
              Minor Planet Center, Smithsonian Astrophysical Observatory,
                              Cambridge, MA 02138, U.S.A.
    
                 Prepared using the Tamkin Foundation Computer Network
    
                                  MPC@CFA.HARVARD.EDU
                URL https://www.minorplanetcenter.net/    ISSN 1523-6714
    
                                    2019 VW2                                 
    
    
    Observations:
         K19V02W  C2019 10 25.56941903 24 17.805+27 23 36.76         21.8 GVEV080F52
         K19V02W  C2019 10 25.58104503 24 14.933+27 23 58.12         21.3 GVEV080F52
         K19V02W  C2019 10 25.59265903 24 12.013+27 24 20.21         21.9 GVEV080F52
         K19V02W* C2019 11 04.23616 02 42 12.11 +31 45 45.3          21.0 GVEV080G96
         K19V02W  C2019 11 04.24130 02 42 10.67 +31 45 51.8          21.1 GVEV080G96
         K19V02W  C2019 11 04.24644 02 42 09.30 +31 45 59.2          21.2 GVEV080G96
         K19V02W  C2019 11 04.25157 02 42 07.79 +31 46 05.7                VEV080G96
         K19V02W  C2019 11 04.35316 02 41 39.32 +31 48 18.3          20.9 GVEV080I52
         K19V02W  C2019 11 04.35649 02 41 38.41 +31 48 21.4          21.7 GVEV080I52
         K19V02W  C2019 11 05.20749 02 37 49.12 +32 06 12.2                VEV080I52
         K19V02W  C2019 11 05.20999 02 37 48.33 +32 06 16.2                VEV080I52
         K19V02W  C2019 11 05.21249 02 37 47.66 +32 06 18.9          21.8 GVEV080I52
         K19V02W  C2019 11 05.21499 02 37 47.01 +32 06 21.9          21.9 GVEV080I52
         K19V02W  C2019 11 05.31611702 37 19.898+32 08 29.06         21.8 GVEV080F51
         K19V02W  C2019 11 05.33018002 37 15.961+32 08 46.70         22.0 GVEV080F51
         K19V02W  C2019 11 05.34392202 37 12.105+32 09 03.95         22.1 GVEV080F51
         K19V02W  C2019 11 05.35706902 37 08.447+32 09 20.07         22.7 GVEV080F51
         K19V02W  C2019 11 05.50174502 36 27.870+32 12 14.77         22.04wUEV080F52
         K19V02W  C2019 11 05.51339402 36 24.606+32 12 28.36         21.75wUEV080F52
         K19V02W  C2019 11 05.53670802 36 18.128+32 12 55.17         21.85wUEV080F52
    
    Observer details:
    F51 Pan-STARRS 1, Haleakala.  Observers J. Bulger, K. Chambers, T. Lowe, E. 
       Magnier, A. Schultz, M. Willman.  Measurers S. Chastel, M. Huber, Y. 
       Ramanjooloo, R. Wainscoat, R. Weryk.  1.8-m Ritchey-Chretien + CCD.
    F52 Pan-STARRS 2, Haleakala.  Observers J. Bulger, K. Chambers, T. Dukes, T. 
       Lowe, E. Magnier, A. Schultz, M. Willman.  Measurers S. Chastel, M. Huber, 
       Y. Ramanjooloo, R. Wainscoat, R. Weryk, K. Chambers, T. de Boer, L. Denneau, 
       J. Fairlamb, H. Flewelling, C.-C. Lin, E. Magnier.  1.8-m Ritchey-Chretien + 
       CCD.
    G96 Mt. Lemmon Survey.  Observer E. J. Christensen.  Measurers E. J. 
       Christensen, G. A. Farneth, D. C. Fuls, A. R. Gibbs, A. D. Grauer, H. 
       Groeller, R. A. Kowalski, S. M. Larson, G. J. Leonard, T. A. Pruyne, D. 
       Rankin, R. L. Seaman, F. C. Shelly, K. W. Wierzchos.  1.5-m reflector + 10K 
       CCD.
    I52 Steward Observatory, Mt. Lemmon Station.  Observers R. A. Kowalski, K. W. 
       Wierzchos, D. Rankin.  Measurers E. J. Christensen, G. A. Farneth, D. C. 
       Fuls, A. R. Gibbs, A. D. Grauer, H. Groeller, R. A. Kowalski, S. M. Larson, 
       G. J. Leonard, T. A. Pruyne, D. Rankin, R. L. Seaman, F. C. Shelly, K. W. 
       Wierzchos.  1.0-m reflector + CCD.
    
    Orbital elements:
    2019 VW2                                                 Earth MOID = 0.1386 AU
    Epoch 2019 Apr. 27.0 TT = JDT 2458600.5                 Bell
    M 344.17127              (2000.0)            P               Q
    n   0.83177623     Peri.  214.40135     -0.41912148     +0.88610527
    a   1.1197774      Node    32.17187     -0.72691120     -0.19690980
    e   0.2628002      Incl.   21.81582     -0.54400119     -0.41957595
    P   1.18           H   22.7           G   0.15           U   7
    Residuals in seconds of arc
    191025 F52  0.2-  0.1+    191104 I52  0.2-  0.9+    191105 F51  0.0   0.0
    191025 F52  0.2+  0.3-    191104 I52  0.1+  0.3-    191105 F51  0.2-  0.1+
    191025 F52  0.0   0.2+    191105 I52  0.7+  0.3-    191105 F51  0.1+  0.2-
    191104 G96  0.2-  0.2-    191105 I52  0.4-  0.5+    191105 F52  0.1-  0.0
    191104 G96  0.2-  0.5-    191105 I52  0.1-  0.1+    191105 F52  0.2-  0.0
    191104 G96  0.6+  0.1+    191105 I52  0.5+  0.0     191105 F52  0.0   0.2-
    191104 G96  0.3-  0.2-    191105 F51  0.1+  0.1+
    
    Ephemeris:
    2019 VW2                 a,e,i = 1.12, 0.26, 22                  q = 0.8255
    Date    TT    R. A. (2000) Decl.     Delta      r    Elong.  Phase     V
    2019 10 07    04 18 37.4 +16 59 09   0.4392  1.3131   127.3    37.3    23.0
    ...
    2019 10 22    03 38 01.5 +25 26 48   0.3950  1.3502   149.3    22.1    22.4
    ...
    2019 10 30    03 05 37.7 +29 35 46   0.3902  1.3666   160.1    14.3    22.1
    ...
    2019 11 05    02 38 44.7 +32 01 57   0.3976  1.3774   163.4    11.9    22.1
    2019 11 06    02 34 14.3 +32 22 01   0.3997  1.3790   163.3    11.9    22.1
    2019 11 07    02 29 45.4 +32 40 49   0.4021  1.3806   162.9    12.2    22.2
    ...
    2019 11 13    02 03 58.5 +34 07 23   0.4217  1.3895   157.9    15.5    22.4
    ...
    2019 11 21    01 34 56.1 +35 03 06   0.4602  1.3993   147.8    22.1    22.8
    ...
    2019 12 06    01 02 31.0 +35 13 13   0.5601  1.4109   129.7    32.5    23.6
    
    A. U. Tomatic                (C) Copyright 2019 MPC           M.P.E.C. 2019-V80
    


    Read MPEC 2019-V79 Read MPEC 2019-V81


    MPEC number:

    Enter an MPEC number in one of the following forms:

    • 1997-B01 (the full form)
    • J97B01 (the packed version of the full form)
    • B01 (the abbreviated form)